SCP
0 0 0 0 0 0 0 0 0 0 0 0 0 0 0 1 1 1 1 1 1 1 1 1 1 2 2 2 1 1 1 1 1 2 2 1 1 1 2 2 1 1 0 0
1 0 0 1 1 1 1 0 0 0 0 0 0 0 1 1 1 1 1 1 1 0 1 1 1 1 2 1 1 1 1 2 2 2 1 1 1 2 1 1 1 1 1 0
1 0 1 1 1 1 1 1 0 0 0 0 0 0 1 2 2 2 1 1 0 0 0 1 1 1 1 1 1 2 2 2 2 2 1 1 1 1 1 1 1 1 1 1
0 0 0 0 1 1 1 1 1 0 0 1 1 1 1 2 2 2 1 1 0 0 0 0 0 1 1 1 2 3 3 2 2 2 2 1 1 1 1 1 1 1 1 1
0 0 0 0 0 1 1 1 1 0 1 1 1 1 1 2 2 1 1 0 0 0 0 0 0 0 1 1 3 3 3 3 3 3 2 2 1 1 2 2 1 1 1 1
0 0 0 0 0 0 0 0 0 0 1 1 1 1 2 2 1 1 0 0 0 0 0 0 0 0 1 2 2 3 2 3 3 3 3 2 2 2 2 2 2 1 1 1
0 0 0 0 0 0 0 0 0 0 0 1 1 1 2 2 1 1 0 0 0 0 0 0 0 1 1 2 2 2 2 3 3 3 3 2 2 2 2 2 2 2 1 1
0 0 0 0 0 0 0 0 0 0 0 1 1 1 1 1 1 0 0 0 0 0 0 0 0 1 1 1 2 2 2 2 2 2 2 2 2 2 2 2 2 2 2 2
0 0 0 0 0 0 0 0 0 0 1 1 1 1 1 1 0 0 0 0 0 0 0 0 0 1 1 2 2 2 1 1 1 1 1 2 2 2 2 2 2 2 2 2
0 0 0 0 0 0 0 0 0 1 1 1 1 1 1 0 0 0 0 0 0 0 0 0 0 1 1 2 2 1 1 1 1 1 1 1 1 2 2 2 2 2 2 2
0 0 0 0 0 0 0 0 0 1 1 1 1 0 0 0 0 0 0 0 0 0 0 0 1 1 2 2 2 1 1 0 1 1 1 1 1 1 1 1 1 1 1 1
0 0 0 0 0 0 0 0 0 1 1 0 0 0 0 0 0 0 0 0 0 0 0 1 1 2 2 2 2 1 1 1 1 1 1 0 0 0 0 0 0 0 0 0
0 0 0 0 0 0 0 0 0 0 0 0 0 0 0 0 0 0 0 0 0 0 0 0 1 2 2 2 2 1 1 1 1 1 1 0 0 0 0 0 0 0 0 0
0 0 0 0 0 0 0 0 0 0 0 0 0 0 0 0 0 0 0 0 0 0 0 0 0 1 1 1 1 1 1 1 1 1 0 0 0 0 0 0 0 0 0 0
0 0 0 0 0 0 0 0 0 0 0 0 0 0 0 0 0 0 0 0 0 0 0 0 0 0 0 0 0 0 0 0 0 0 0 0 0 0 0 0 0 0 0 0
0 0 0 0 0 0 0 0 1 1 0 0 0 0 0 0 0 0 0 0 0 0 0 0 0 0 0 0 0 0 0 0 0 0 0 0 0 0 0 0 0 0 0 0
0 0 0 0 0 0 0 0 1 0 0 0 0 0 0 0 0 0 0 0 0 0 0 0 0 0 0 0 0 0 0 0 0 0 0 0 0 0 0 0 0 0 0 0
0 0 0 0 0 0 0 0 0 0 0 0 0 0 0 0 0 0 0 0 0 0 0 0 0 0 0 0 0 0 0 0 0 0 0 0 0 0 0 0 0 0 0 0
0 0 0 0 0 0 0 0 0 0 0 0 0 0 0 0 0 0 0 0 0 0 0 0 0 0 0 0 0 0 0 0 0 0 0 0 0 0 0 0 0 0 0 0
0 0 0 0 0 0 0 0 0 0 0 0 0 0 0 0 0 0 0 0 0 0 0 0 0 0 0 0 0 0 0 0 0 0 0 0 0 0 0 0 0 0 0 0
0 0 0 0 0 0 0 0 0 0 0 0 0 0 0 0 0 0 0 0 0 0 0 0 0 0 0 0 0 0 0 0 0 0 0 0 0 0 0 0 0 0 0 0
0 0 0 0 0 0 0 0 0 0 0 0 0 0 0 0 0 0 0 0 0 0 0 0 0 0 0 0 0 0 0 0 0 0 0 0 0 0 0 0 0 0 0 0
0 0 0 0 0 0 0 0 0 0 0 0 0 0 0 0 0 0 0 0 0 0 0 0 0 0 0 0 0 0 0 0 0 0 0 0 0 0 0 0 0 0 0 0
0 0 0 0 0 0 0 0 0 0 0 0 0 0 0 0 0 0 0 0 0 0 0 0 0 0 0 0 0 0 0 0 0 0 0 0 0 0 0 0 0 0 0 0
0 0 0 0 0 0 0 0 0 0 0 0 0 0 0 0 0 0 0 0 0 0 0 0 0 0 0 0 0 0 0 0 0 0 0 0 0 0 0 0 0 0 0 0
0 0 0 0 0 0 0 0 0 0 0 0 0 0 0 0 0 0 0 0 0 0 0 0 0 0 0 0 0 0 0 0 0 0 0 0 0 0 0 0 0 0 0 0
0 0 0 0 0 0 0 0 0 0 0 0 0 0 0 0 0 0 0 0 0 0 0 0 0 0 0 0 0 0 0 0 0 0 0 0 0 0 0 0 0 0 0 0
Wind_Speed
5 4 3 4 4 5 6 7 8 7 5 6 4 3 2 2 3 4 5 5 6 7 6 6 6 6 7 7 7 8 8 8 8 7 7 6 6 6 6 6 7 6 6 6
3 4 3 3 4 5 6 4 5 3 5 4 1 1 2 2 3 4 4 5 5 5 5 6 6 6 6 7 7 7 8 8 7 7 7 7 7 6 6 6 5 5 6 6
3 2 1 4 5 5 4 3 5 6 6 0 2 3 2 1 2 3 3 3 4 4 4 4 5 5 6 6 6 7 7 6 6 6 6 6 6 6 6 6 5 5 5 5
1 1 5 6 1 1 2 3 2 2 2 2 2 4 5 4 3 4 4 4 3 2 2 2 2 3 4 5 6 6 6 5 5 6 6 5 5 5 5 4 5 5 5 5
2 2 3 3 1 0 1 3 1 2 2 3 4 5 6 6 5 5 5 4 4 4 3 2 2 3 5 6 6 6 5 5 5 6 6 6 6 5 4 4 4 4 3 4
2 2 4 3 2 2 1 3 2 2 2 2 2 3 2 4 6 7 7 6 6 6 6 5 3 4 7 6 5 4 3 3 3 4 5 5 4 4 3 3 4 4 3 4
2 2 3 3 4 1 2 3 2 2 2 3 3 3 5 6 7 8 8 8 7 8 8 6 5 6 8 6 5 3 4 4 4 3 3 3 2 2 2 3 2 2 2 2
2 1 4 4 3 0 2 1 1 4 5 7 9 9 8 8 9 8 8 8 8 9 9 7 7 7 8 5 3 4 5 5 4 3 3 2 3 2 2 2 2 2 1 1
3 3 3 2 2 2 1 1 2 4 7 11 10 9 9 9 8 8 8 8 8 9 9 9 8 7 8 5 4 5 6 5 4 4 3 3 3 2 2 2 1 1 1 1
1 2 2 3 2 2 2 3 5 7 8 10 11 10 10 9 8 7 8 7 7 9 10 9 8 8 6 5 5 6 6 5 4 4 4 4 3 2 2 1 1 1 0 1
1 2 3 4 3 3 5 7 9 9 9 10 11 10 9 8 8 7 7 6 7 8 8 7 7 7 6 6 7 8 7 5 5 5 4 4 4 2 2 1 1 1 1 1
2 2 0 1 3 5 7 8 8 10 10 9 10 10 10 8 7 7 7 6 7 7 7 6 6 7 6 6 6 7 6 5 4 4 4 4 4 4 6 4 5 3 0 1
2 1 2 3 5 6 8 9 9 10 11 11 9 9 10 8 7 7 7 7 7 6 6 6 6 7 6 5 6 7 6 4 4 4 4 3 3 3 4 5 8 8 7 5
3 4 5 4 5 7 9 11 11 12 11 10 9 9 9 8 7 7 6 5 5 6 6 6 7 7 6 5 6 6 5 5 4 3 3 3 3 3 3 3 3 4 5 6
5 6 7 6 7 8 8 10 12 10 9 9 8 8 8 8 7 5 4 5 6 7 7 7 7 6 5 5 6 6 5 4 3 3 3 3 3 3 3 3 2 2 3 4
7 9 9 9 9 8 8 9 10 8 7 7 7 7 7 8 7 6 5 5 7 6 5 5 5 4 4 5 5 5 4 7 5 3 3 3 3 3 3 2 2 2 2 3
7 7 7 8 8 7 7 7 7 7 7 7 7 7 7 8 7 6 5 5 6 5 4 4 4 4 5 5 5 4 4 5 7 4 4 3 3 3 2 2 2 2 2 3
6 6 6 8 8 8 7 7 7 7 6 6 6 7 7 7 6 5 4 5 6 6 6 4 4 5 5 5 4 3 3 3 3 3 3 3 3 3 2 2 2 3 3 4
8 8 8 8 8 8 7 7 7 6 6 6 7 7 6 5 5 4 4 6 6 5 4 4 6 6 5 5 5 3 3 3 3 3 3 3 3 3 2 2 3 3 3 3
8 8 9 9 8 8 8 7 7 7 6 6 8 7 6 5 4 5 6 5 3 1 2 3 4 4 4 5 5 3 3 3 3 2 3 2 2 3 3 3 3 4 4 4
8 9 10 9 8 8 7 6 7 7 5 6 7 6 5 4 4 4 5 4 3 3 3 5 4 3 3 4 5 3 3 3 2 2 3 3 3 3 3 3 4 4 4 4
7 8 9 9 9 8 6 6 6 7 7 6 6 6 6 5 5 5 4 2 1 3 3 3 3 3 4 4 3 3 3 3 3 2 2 3 3 3 3 4 4 4 4 4
7 7 8 8 7 6 7 7 7 7 7 6 6 5 5 3 2 3 2 2 2 3 3 2 3 5 5 3 3 3 3 3 3 3 3 3 3 3 3 4 4 4 4 5
7 7 7 6 7 8 8 6 6 5 6 6 5 4 4 3 3 2 1 2 3 4 3 3 5 6 5 3 3 3 3 3 3 3 3 3 3 3 3 4 4 4 4 6
7 7 7 7 7 5 5 5 6 6 6 5 5 5 3 2 2 1 2 3 4 4 3 3 5 5 4 3 3 3 3 3 3 3 3 3 3 4 4 4 4 4 4 5
6 5 5 5 4 3 3 4 4 3 3 4 3 3 3 3 3 3 3 3 4 4 3 2 3 4 3 3 3 3 3 4 4 3 4 3 4 4 4 4 5 4 4 5
6 5 5 5 4 3 3 3 3 3 2 2 2 2 3 3 3 3 3 3 3 3 3 3 3 3 3 3 3 3 3 3 3 3 3 3 3 3 4 5 4 4 4 5
Wind_Direction
238 239 205 216 221 195 193 191 193 229 232 258 264 239 233 205 165 155 160 169 177 179 180 178 178 181 184 184 178 174 176 184 191 187 182 177 178 180 182 185 192 191 192 197
272 252 214 245 255 222 219 202 214 237 264 262 287 88 76 100 145 160 170 177 178 176 176 179 182 183 184 184 180 171 179 189 186 178 178 182 184 181 182 189 188 185 193 197
244 274 78 254 242 224 215 209 190 215 236 269 50 74 85 88 117 137 143 147 158 169 178 184 185 178 178 176 161 163 174 178 177 176 180 186 181 177 186 190 184 189 199 201
190 117 220 244 274 226 206 240 222 221 204 123 107 86 64 56 80 84 85 91 99 117 129 139 151 153 153 145 146 155 163 169 169 169 175 174 169 177 185 183 189 199 207 211
148 186 260 294 333 9 201 267 232 182 142 112 117 89 50 39 59 68 68 72 75 75 84 86 113 141 136 136 139 147 161 169 168 167 167 165 174 183 181 176 187 196 198 208
147 173 227 257 302 315 107 287 344 121 145 142 112 107 75 51 67 72 67 65 67 71 72 65 61 101 113 117 119 132 146 145 143 149 159 170 181 181 174 180 195 196 204 210
185 222 263 301 315 340 173 253 357 98 122 114 88 108 107 86 73 67 65 61 62 65 63 49 49 86 95 95 100 112 107 101 100 117 139 146 146 143 150 160 162 177 200 215
162 196 260 333 345 216 226 328 87 99 100 102 102 101 96 85 75 67 63 59 61 64 57 42 46 74 81 75 72 87 94 93 88 85 90 102 113 114 125 143 154 178 182 205
187 220 269 317 288 290 255 133 104 99 109 115 111 106 98 86 76 66 62 59 61 69 63 46 41 59 70 52 62 76 78 76 77 80 80 87 99 102 107 120 148 170 167 217
281 299 319 337 6 28 70 103 98 101 105 110 109 104 97 89 81 72 63 58 60 67 64 51 43 51 57 57 69 76 72 63 61 64 58 56 66 84 100 109 121 119 145 238
281 300 352 21 31 52 75 90 99 98 100 104 107 101 96 89 80 75 69 61 61 68 68 57 51 50 43 46 63 70 67 61 57 56 56 52 50 48 58 75 144 172 205 207
228 272 323 6 37 68 83 89 103 104 94 89 97 100 95 87 80 78 75 70 68 65 64 55 53 49 37 40 61 73 69 59 54 54 54 53 51 40 36 44 41 51 143 227
186 123 87 68 61 74 85 91 96 102 105 102 94 99 97 90 81 77 73 70 69 67 63 57 54 44 30 37 58 67 69 63 57 56 55 52 53 54 32 21 34 41 37 30
124 107 84 64 70 78 87 92 93 92 93 97 99 97 96 92 86 80 75 71 72 68 61 57 54 39 20 38 57 60 60 58 60 55 53 50 48 46 48 43 21 9 15 20
61 88 104 96 82 79 87 96 95 91 93 92 94 98 101 99 92 83 76 78 75 67 58 55 51 29 16 42 55 52 51 49 51 51 51 51 49 48 46 42 34 7 359 5
84 85 94 94 91 88 92 97 100 99 101 101 97 96 97 97 92 81 69 74 79 70 55 54 45 19 25 49 56 49 42 45 50 48 44 44 42 41 36 32 27 16 2 349
104 102 103 99 93 90 90 95 102 104 101 100 102 102 98 94 87 78 67 66 79 73 58 54 34 23 37 51 61 55 46 41 45 47 39 33 29 22 16 15 7 353 336 331
103 109 116 118 114 104 95 91 94 96 98 102 102 99 96 96 95 86 76 75 71 57 39 33 38 44 46 48 53 54 55 48 42 38 30 23 14 7 6 2 345 332 325 328
94 98 98 100 102 101 96 92 91 92 94 98 96 91 88 87 89 85 80 72 65 53 15 17 41 53 48 48 58 54 55 49 38 26 21 17 11 357 347 338 328 323 323 325
85 89 93 91 87 92 94 92 91 85 82 92 95 89 80 74 80 84 79 68 43 11 357 35 50 50 40 37 47 48 47 43 32 14 6 2 349 340 336 332 329 326 325 321
86 87 88 87 82 79 85 93 95 91 84 90 99 102 98 85 80 82 81 65 13 21 44 51 48 37 28 28 36 35 28 20 11 359 352 346 342 340 338 338 335 330 328 325
80 83 84 85 83 75 68 76 89 95 90 86 89 94 92 82 74 67 62 72 27 36 47 44 39 36 34 35 35 29 19 11 4 357 353 348 345 341 338 336 335 333 332 331
79 84 86 88 90 86 74 69 74 83 85 84 86 88 88 82 80 84 57 12 34 47 50 39 31 38 42 42 33 27 18 12 3 355 349 345 344 341 336 335 337 336 333 333
83 83 85 89 92 87 77 66 67 74 78 76 72 77 85 78 50 38 56 39 42 52 55 41 39 44 43 34 24 16 6 0 357 355 354 350 347 347 345 343 343 344 343 341
89 85 84 85 83 84 87 84 76 70 69 63 55 51 50 64 77 44 48 52 50 52 46 34 38 38 33 21 15 7 358 353 356 356 358 356 352 350 351 351 351 349 346 342
86 83 79 79 87 91 87 86 84 74 73 66 48 36 34 40 55 58 56 53 50 48 41 27 19 21 17 10 6 3 359 358 2 4 1 358 356 355 356 357 356 351 344 340
83 81 79 71 59 63 75 83 86 75 70 84 67 36 40 47 53 55 54 48 42 40 35 26 22 21 19 14 7 2 1 2 3 3 2 2 0 359 356 354 350 344 340 341